KB3YTV Weather Reports


Display with metric or nautical units.
time (UTC)temp
F
wind
direction
speed
MPH
gust
MPH
rain 1hr
in
rain 24hr
in
rain mn
in
humidity
%
barometer
mb
20260510004534 54 0 0.0 0.0 0.00 0.22 0.22 86 1009.5
20260510003035 56 0 0.0 1.0 0.00 0.22 0.22 83 1009.4
20260510001536 58 0 0.0 0.0 0.00 0.22 0.22 79 1009.2
20260510000043 59 0 0.0 0.0 0.00 0.22 0.22 77 1009.1
20260509234553 60 0 0.0 0.0 0.00 0.22 0.22 76 1009.0
20260509233042 60 0 0.0 1.0 0.00 0.22 0.22 75 1009.0
20260509231536 61 0 0.0 2.0 0.00 0.22 0.22 74 1008.9
20260509230034 61 0 0.0 2.0 0.00 0.22 0.22 74 1008.9
20260509224533 61 188 0.0 2.0 0.00 0.22 0.22 72 1008.8
20260509223031 61 278 0.0 2.0 0.00 0.22 0.22 73 1008.8
20260509221557 60 0 0.0 2.0 0.00 0.22 0.22 75 1008.7
20260509220032 61 253 0.0 3.0 0.00 0.22 0.22 74 1009.0
20260509214535 60 0 0.0 3.0 0.00 0.22 0.22 77 1009.3
20260509213034 59 240 1.0 2.0 0.00 0.22 0.22 79 1009.4
20260509211534 59 0 0.0 0.0 0.00 0.22 0.22 81 1009.5
20260509210034 58 0 0.0 0.0 0.00 0.22 0.22 82 1009.7
20260509204533 58 0 1.0 1.0 0.00 0.22 0.22 82 1009.8
20260509203036 57 0 0.0 0.0 0.00 0.22 0.22 82 1009.7
20260509201532 57 0 0.0 2.0 0.00 0.22 0.22 82 1009.8
20260509200036 58 324 1.0 3.0 0.00 0.22 0.22 81 1010.0
20260509194534 58 307 1.0 3.0 0.00 0.22 0.22 81 1010.1
20260509193039 58 320 1.0 3.0 0.00 0.22 0.22 82 1010.4
20260509191531 57 283 1.0 4.0 0.00 0.22 0.22 84 1010.6
20260509190042 57 247 1.0 4.0 0.00 0.22 0.22 84 1010.7
20260509184536 56 93 0.0 2.0 0.01 0.22 0.22 87 1010.5
20260509183041 55 125 0.0 1.0 0.01 0.22 0.22 89 1010.7
20260509181534 55 118 0.0 1.0 0.01 0.22 0.22 90 1010.8
20260509180033 54 0 0.0 1.0 0.01 0.21 0.21 89 1011.1
20260509174532 54 0 0.0 1.0 0.02 0.21 0.21 89 1010.9
20260509173050 54 0 0.0 2.0 0.04 0.21 0.21 90 1011.2
20260509171543 53 0 0.0 2.0 0.05 0.21 0.21 90 1011.0
20260509170041 53 119 0.0 1.0 0.07 0.20 0.20 90 1011.0
20260509164536 52 0 0.0 2.0 0.12 0.19 0.19 89 1010.8
20260509163031 52 82 1.0 2.0 0.12 0.17 0.17 89 1010.9
20260509161535 52 10 0.0 1.0 0.12 0.16 0.16 89 1011.1
20260509160034 53 0 0.0 2.0 0.09 0.12 0.12 88 1011.9
20260509154543 54 243 0.0 3.0 0.06 0.07 0.07 86 1012.1
20260509153043 54 253 0.0 3.0 0.05 0.05 0.05 85 1012.1
20260509151540 55 0 0.0 3.0 0.04 0.04 0.04 86 1011.9
20260509150040 55 0 0.0 1.0 0.03 0.03 0.03 84 1011.9
20260509144539 55 0 0.0 0.0 0.01 0.01 0.01 82 1011.7
20260509143035 55 323 0.0 0.0 0.00 0.00 0.00 82 1011.6
20260509141547 54 0 0.0 1.0 0.00 0.00 0.00 82 1011.3
20260509140041 54 314 0.0 2.0 0.00 0.00 0.00 82 1011.2
20260509134552 54 87 1.0 2.0 0.00 0.00 0.00 82 1011.0
20260509133043 54 117 0.0 4.0 0.00 0.00 0.00 84 1011.2
20260509131551 53 90 1.0 2.0 0.00 0.00 0.00 82 1011.0
20260509130045 53 82 1.0 2.0 0.00 0.00 0.00 82 1011.1
20260509124542 53 0 0.0 2.0 0.00 0.00 0.00 82 1011.2
20260509123045 53 85 0.0 2.0 0.00 0.00 0.00 81 1010.9
20260509121534 52 117 1.0 6.0 0.00 0.00 0.00 80 1010.9
20260509120034 52 89 1.0 5.0 0.00 0.00 0.00 80 1010.8
20260509114534 52 82 3.0 4.0 0.00 0.00 0.00 79 1010.8
20260509113034 52 121 1.0 2.0 0.00 0.00 0.00 79 1010.8
20260509111532 52 97 1.0 4.0 0.00 0.00 0.00 78 1010.9
20260509110034 52 94 0.0 3.0 0.00 0.00 0.00 80 1010.9
20260509104544 52 0 0.0 1.0 0.00 0.00 0.00 79 1010.9
20260509103034 51 0 0.0 4.0 0.00 0.00 0.00 78 1010.7
20260509101535 51 83 2.0 4.0 0.00 0.00 0.00 80 1010.2
20260509100037 51 97 1.0 2.0 0.00 0.00 0.00 80 1010.5
20260509094534 51 116 0.0 3.0 0.00 0.00 0.00 81 1010.6
20260509093035 50 91 0.0 3.0 0.00 0.00 0.00 82 1010.4
20260509091534 50 73 1.0 4.0 0.00 0.00 0.00 81 1010.7
20260509090040 50 92 1.0 3.0 0.00 0.00 0.00 83 1010.8
20260509084537 50 98 0.0 3.0 0.00 0.00 0.00 82 1010.9
20260509083043 51 85 0.0 1.0 0.00 0.00 0.00 82 1010.9
20260509081542 50 0 0.0 1.0 0.00 0.00 0.00 83 1011.1
20260509080032 49 0 0.0 2.0 0.00 0.00 0.00 84 1011.0
20260509074536 49 94 2.0 3.0 0.00 0.00 0.00 85 1011.1
20260509073035 49 0 0.0 1.0 0.00 0.00 0.00 83 1011.3
20260509071536 50 0 0.0 0.0 0.00 0.00 0.00 81 1011.2
20260509070034 51 0 0.0 1.0 0.00 0.00 0.00 81 1011.2
20260509064532 51 89 0.0 1.0 0.00 0.00 0.00 81 1011.3
20260509063034 52 108 0.0 2.0 0.00 0.00 0.00 80 1011.3
20260509061537 52 94 0.0 2.0 0.00 0.00 0.00 80 1011.6
20260509060035 52 99 0.0 1.0 0.00 0.00 0.00 80 1011.8
20260509054542 53 98 1.0 1.0 0.00 0.00 0.00 79 1011.8
20260509053110 53 118 0.0 1.0 0.00 0.00 0.00 79 1011.9
20260509051542 53 101 1.0 2.0 0.00 0.00 0.00 79 1012.0
20260509050043 53 96 0.0 1.0 0.00 0.00 0.00 78 1011.9
20260509044537 53 94 2.0 4.0 0.00 0.00 0.00 77 1011.7
20260509043036 54 87 3.0 5.0 0.00 0.00 0.00 77 1011.9
20260509041533 54 34 2.0 4.0 0.00 0.00 0.00 77 1012.2
20260509040033 54 82 2.0 4.0 0.00 0.00 0.00 74 1012.5
20260509034542 54 72 1.0 1.0 0.00 0.00 0.00 74 1012.3
20260509033033 54 0 0.0 3.0 0.00 0.00 0.00 72 1012.5
20260509031537 54 184 1.0 3.0 0.00 0.00 0.00 74 1012.8
20260509030037 54 0 0.0 1.0 0.00 0.00 0.00 74 1011.7
20260509024534 54 0 0.0 0.0 0.00 0.00 0.00 73 1012.1
20260509023042 54 0 0.0 0.0 0.00 0.00 0.00 73 1012.1
20260509021532 55 0 0.0 0.0 0.00 0.00 0.00 73 1012.0
20260509020033 55 0 0.0 0.0 0.00 0.00 0.00 71 1012.2
20260509014538 56 0 0.0 0.0 0.00 0.00 0.00 68 1012.1
20260509013035 56 0 0.0 0.0 0.00 0.00 0.00 66 1011.9
20260509011605 57 0 0.0 3.0 0.00 0.00 0.00 65 1011.9
20260509010035 57 278 1.0 3.0 0.00 0.00 0.00 64 1011.8